Location: Unspecified
(0.0000°N, 0.0000°E)
Time: 06:17:46
(UTC+00:00)

Courier 1B - Pass Details

Date: 03 October 2023
Orbit: 962 x 1208 km, 28.3° (Epoch: 06 December)

Event Time Altitude Azimuth Distance (km) Brightness Sun altitude
Rises 08:15:01 0° 263° (W) 3,701 10.0 36.4°
Reaches altitude 10° 08:17:59 10° 274° (W) 2,782 9.5 37.1°
Maximum altitude 08:23:47 30° 333° (NNW) 1,777 8.9 38.5°
Drops below altitude 10° 08:29:54 10° 32° (NNE) 2,929 10.4 40.1°
Sets 08:33:07 0° 43° (NE) 3,929 11.1 40.9°
